Starlink 11514

operational
NORAD ID: 62514 Int'l Des: 2025-004 Owner: SPXS Country: US Constellation: starlink
LEOCIRCULAR

Über Starlink 11514

Beschreibung wird geladen...

Live-Position

3D-Globus wird geladen...

Nächste Überflüge

Höhenverlauf

Altitude vs Time

uPlot chart will show altitude changes over time

Zweizeiliger Elementsatz

1 62514U 25004D 26034.63532012 .00230617 00000-0 17482-2 0 9999
2 62514 42.9994 275.9104 0001718 254.7519 105.3159 15.70882673 61856
Epoch: 3. Feb. 2026 • Age: 15 hours

Aktueller Status

Höhe 359.1 km
Geschwindigkeit 7.69 km/s
Subsatellitenpunkt -19.57°S, 107.89°W
Startdatum 8. Jan. 2025
Alter 1 years
Typ internet

Technische Details

Klassifizierung Payload
Masse 960.00 kg
Trockenmasse 910.00 kg
Gesamtmasse 960.00 kg
Länge 0.30 m
Durchmesser 4.10 m
Spannweite 29.00 m
Form Box + pan
Hersteller SPXS
Bus-Typ Starlink V2MD
Phasenstatus In Orbit
Besitzer/Staat SPXS/US

Große Konstellationen

Loading constellations...